Total_Precipitation_Accumulation
0.20 0.27 0.63 0.80 0.92 0.93 0.85 0.76 0.73 0.73 0.73 0.75 0.76 0.75 0.73 0.73 0.76 0.71 0.70 0.67 0.71 0.80 0.89 0.92 0.87 0.76 0.65 0.60 0.57 0.53 0.50 0.48 0.45 0.42 0.36 0.39 0.45 0.46 0.40 0.43 0.51 0.53 0.64
0.18 0.28 0.61 0.79 0.91 0.87 0.85 0.79 0.72 0.70 0.74 0.82 0.89 0.88 0.80 0.77 0.77 0.74 0.68 0.69 0.73 0.84 0.99 0.97 0.85 0.70 0.52 0.40 0.38 0.39 0.37 0.31 0.26 0.17 0.13 0.17 0.26 0.35 0.38 0.39 0.44 0.52 0.58
0.19 0.28 0.57 0.81 0.92 0.92 0.89 0.83 0.77 0.72 0.77 0.89 0.99 0.97 0.87 0.77 0.75 0.76 0.70 0.70 0.75 0.86 0.92 0.86 0.74 0.61 0.47 0.38 0.31 0.28 0.27 0.21 0.16 0.09 0.10 0.16 0.24 0.36 0.35 0.40 0.48 0.55 0.60
0.23 0.30 0.52 0.88 0.97 0.95 0.92 0.89 0.85 0.80 0.78 0.86 0.98 0.93 0.86 0.82 0.83 0.77 0.74 0.76 0.79 0.80 0.76 0.70 0.60 0.52 0.41 0.34 0.29 0.27 0.23 0.18 0.12 0.09 0.17 0.23 0.27 0.44 0.48 0.49 0.55 0.57 0.60
0.32 0.38 0.63 0.95 1.07 1.01 0.98 0.91 0.92 0.92 0.90 0.91 0.92 0.92 0.88 0.83 0.85 0.83 0.77 0.76 0.74 0.75 0.69 0.61 0.50 0.41 0.35 0.32 0.28 0.28 0.23 0.16 0.10 0.11 0.20 0.28 0.39 0.62 0.64 0.61 0.62 0.57 0.54
0.41 0.58 0.81 1.06 1.16 1.14 1.06 1.00 1.01 1.05 1.09 1.06 1.03 0.98 0.95 0.90 0.91 0.90 0.80 0.68 0.68 0.66 0.65 0.57 0.47 0.40 0.34 0.31 0.30 0.29 0.25 0.16 0.11 0.15 0.21 0.30 0.44 0.71 0.71 0.66 0.66 0.64 0.62
0.49 0.71 0.99 1.23 1.29 1.25 1.18 1.14 1.16 1.23 1.25 1.23 1.19 1.14 1.07 1.02 0.99 0.91 0.76 0.66 0.67 0.66 0.66 0.62 0.50 0.43 0.38 0.34 0.36 0.34 0.24 0.14 0.12 0.18 0.24 0.32 0.49 0.71 0.73 0.70 0.73 0.76 0.74
0.76 0.97 1.24 1.46 1.44 1.32 1.22 1.15 1.15 1.26 1.29 1.25 1.17 1.20 1.21 1.15 1.08 0.97 0.82 0.73 0.74 0.77 0.78 0.71 0.60 0.50 0.43 0.39 0.37 0.32 0.20 0.12 0.12 0.14 0.22 0.29 0.49 0.71 0.77 0.73 0.77 0.82 0.84
1.27 1.43 1.53 1.60 1.53 1.49 1.33 1.18 1.13 1.17 1.24 1.25 1.20 1.16 1.17 1.18 1.18 1.05 0.93 0.89 0.84 0.85 0.84 0.77 0.68 0.61 0.53 0.46 0.35 0.26 0.18 0.12 0.12 0.12 0.14 0.23 0.45 0.76 0.91 0.88 0.88 0.94 0.91
1.74 1.86 1.90 1.87 1.75 1.63 1.49 1.27 1.15 1.16 1.19 1.21 1.19 1.07 0.98 1.04 1.13 1.04 0.90 0.91 0.89 0.88 0.82 0.73 0.70 0.70 0.63 0.53 0.37 0.23 0.17 0.16 0.14 0.14 0.18 0.28 0.56 0.88 1.04 1.01 1.02 0.99 0.96
2.11 2.17 2.26 2.23 2.06 1.93 1.69 1.36 1.26 1.27 1.26 1.20 1.16 1.02 1.00 1.05 1.06 0.96 0.84 0.78 0.78 0.80 0.76 0.73 0.73 0.71 0.64 0.58 0.41 0.26 0.21 0.18 0.15 0.16 0.21 0.38 0.69 0.90 1.02 1.01 1.05 0.94 0.83
2.29 2.34 2.39 2.43 2.40 2.30 2.05 1.74 1.59 1.44 1.38 1.24 1.12 1.10 1.03 1.06 1.12 1.01 0.95 0.84 0.76 0.74 0.73 0.76 0.79 0.75 0.64 0.56 0.48 0.32 0.25 0.22 0.22 0.21 0.25 0.42 0.67 0.88 1.01 1.00 0.98 0.92 0.78
2.48 2.56 2.58 2.67 2.62 2.49 2.24 1.93 1.74 1.64 1.57 1.46 1.29 1.22 1.13 1.15 1.15 1.17 1.13 1.05 0.91 0.78 0.79 0.77 0.74 0.63 0.57 0.53 0.51 0.38 0.29 0.26 0.27 0.26 0.30 0.41 0.63 0.94 1.09 1.07 0.98 0.93 0.84
2.62 2.58 2.66 2.76 2.75 2.60 2.36 2.16 1.89 1.78 1.73 1.67 1.53 1.45 1.42 1.31 1.25 1.17 1.09 1.06 1.05 0.89 0.88 0.86 0.72 0.59 0.56 0.51 0.51 0.47 0.39 0.34 0.32 0.34 0.34 0.41 0.59 0.87 1.03 1.05 1.02 0.99 0.96
2.57 2.66 2.77 2.75 2.71 2.71 2.61 2.34 2.06 1.93 1.83 1.78 1.82 1.68 1.59 1.50 1.41 1.38 1.25 1.15 1.07 1.04 1.02 0.99 0.89 0.80 0.71 0.64 0.58 0.53 0.48 0.41 0.38 0.38 0.38 0.37 0.45 0.63 0.84 0.99 1.10 1.13 1.11
2.30 2.57 2.75 2.78 2.73 2.68 2.70 2.59 2.26 1.94 1.90 1.88 1.85 1.85 1.81 1.71 1.61 1.54 1.44 1.37 1.25 1.17 1.13 1.10 1.01 1.03 1.02 0.90 0.76 0.66 0.57 0.51 0.44 0.41 0.39 0.40 0.45 0.51 0.67 0.88 1.05 1.18 1.30
2.05 2.33 2.59 2.82 2.85 2.72 2.66 2.72 2.65 2.32 2.04 1.86 1.82 1.86 1.88 1.81 1.73 1.67 1.64 1.51 1.33 1.28 1.29 1.27 1.22 1.21 1.16 1.05 0.92 0.85 0.76 0.69 0.60 0.53 0.48 0.45 0.48 0.52 0.61 0.77 0.95 1.12 1.33
1.91 2.12 2.34 2.50 2.72 2.74 2.65 2.64 2.69 2.56 2.34 2.12 1.91 1.85 1.82 1.77 1.76 1.76 1.72 1.70 1.54 1.46 1.48 1.43 1.35 1.30 1.20 1.12 1.03 0.97 0.90 0.85 0.79 0.75 0.70 0.62 0.58 0.53 0.59 0.72 0.85 1.02 1.22
1.79 2.03 2.32 2.30 2.44 2.70 2.90 2.81 2.66 2.57 2.40 2.26 2.07 1.86 1.78 1.84 1.87 1.82 1.70 1.67 1.70 1.60 1.52 1.53 1.49 1.41 1.32 1.24 1.18 1.11 1.04 0.99 0.92 0.88 0.87 0.82 0.77 0.71 0.65 0.71 0.75 0.82 1.04
1.78 1.97 2.26 2.30 2.39 2.63 2.92 2.98 2.89 2.71 2.48 2.38 2.17 1.92 1.80 1.78 1.89 1.84 1.72 1.73 1.78 1.72 1.56 1.49 1.45 1.44 1.39 1.41 1.38 1.26 1.17 1.10 1.06 1.00 0.94 0.91 0.89 0.85 0.78 0.72 0.70 0.73 0.88
1.89 1.94 2.12 2.28 2.39 2.50 2.63 2.62 2.54 2.56 2.55 2.49 2.33 2.16 2.03 1.94 1.95 1.96 1.86 1.86 1.87 1.80 1.70 1.69 1.68 1.61 1.52 1.52 1.50 1.32 1.23 1.18 1.10 1.04 0.99 0.89 0.82 0.83 0.85 0.82 0.73 0.69 0.73
1.79 1.87 2.07 2.24 2.32 2.32 2.44 2.60 2.53 2.60 2.69 2.74 2.67 2.46 2.30 2.20 2.14 2.08 2.08 2.12 2.07 1.97 1.88 1.82 1.81 1.77 1.66 1.65 1.66 1.59 1.40 1.33 1.18 1.01 0.96 0.89 0.85 0.81 0.80 0.87 0.87 0.77 0.69
1.66 1.88 2.02 2.14 2.27 2.32 2.54 2.95 2.91 2.81 2.76 2.79 2.81 2.72 2.53 2.41 2.35 2.24 2.18 2.26 2.26 2.14 2.03 1.95 1.87 1.81 1.82 1.79 1.72 1.81 1.59 1.31 1.17 1.07 0.98 0.90 0.89 0.89 0.85 0.85 0.88 0.86 0.77
1.46 1.73 2.02 2.16 2.32 2.52 2.75 2.97 3.00 2.75 2.59 2.57 2.61 2.71 2.72 2.50 2.42 2.41 2.37 2.34 2.37 2.33 2.16 2.08 2.01 1.95 1.94 1.90 1.82 1.65 1.54 1.34 1.26 1.13 1.01 0.97 0.96 0.91 0.87 0.85 0.86 0.89 0.91
1.32 1.50 1.77 2.05 2.20 2.47 2.69 2.83 2.99 2.78 2.50 2.54 2.56 2.55 2.65 2.58 2.41 2.38 2.35 2.28 2.23 2.25 2.29 2.25 2.10 2.04 1.95 1.81 1.73 1.61 1.51 1.33 1.18 1.17 1.03 0.92 0.96 0.93 0.88 0.86 0.89 0.93 0.96
1.16 1.29 1.45 1.69 1.83 1.99 2.23 2.47 2.69 2.72 2.64 2.55 2.41 2.39 2.43 2.43 2.39 2.36 2.36 2.26 2.14 2.08 2.07 2.16 2.18 2.07 1.98 1.86 1.73 1.64 1.55 1.45 1.29 1.26 1.21 1.01 0.98 0.95 0.94 0.92 0.88 0.90 0.94